Theta_e
334 334 339 339 339 340 341 342 342 342 342 342 342 341 341 341 342 341 339 338 337 337 338 342 342 339 341 342 342 342 341 341 341 341 341 341 341 342 340 340 343 344 341
334 333 338 339 339 341 342 342 341 341 340 340 341 340 338 338 341 342 341 342 337 338 340 342 340 340 342 341 340 340 340 339 339 338 339 340 340 341 339 339 342 343 342
333 333 338 338 338 339 341 341 341 339 338 338 336 335 336 336 336 336 337 340 340 339 340 341 341 341 341 340 340 341 339 338 339 338 339 341 342 340 338 340 341 339 339
332 332 334 337 338 338 339 340 341 339 337 336 334 335 335 334 334 332 331 336 337 338 338 340 340 340 339 339 340 338 339 338 338 338 340 341 341 341 341 341 341 341 341
333 332 333 337 337 337 337 338 339 339 336 336 335 335 335 333 330 330 332 336 336 337 337 336 338 337 338 338 338 338 338 338 338 338 340 340 341 341 341 341 341 340 339
332 332 332 333 336 335 336 337 338 337 337 336 335 334 336 333 332 331 331 331 334 336 337 336 338 331 329 326 329 333 335 336 337 339 339 338 340 340 340 339 338 339 339
331 330 328 329 335 335 335 336 335 336 336 334 334 334 336 335 331 327 328 331 336 339 338 337 335 334 329 329 332 332 334 336 336 337 337 338 338 339 339 338 338 338 337
329 329 330 330 332 332 334 335 335 335 334 335 333 332 333 335 334 335 333 334 337 338 336 334 333 333 333 334 334 333 334 335 335 336 336 335 337 338 338 336 336 337 337
330 330 332 332 335 336 333 333 332 332 333 335 333 331 333 334 333 333 334 333 336 335 334 331 330 331 333 334 332 333 333 334 335 335 335 335 336 336 335 334 334 333 332
331 334 334 334 332 331 330 330 330 333 333 333 332 331 333 332 330 330 330 333 335 333 333 332 332 333 332 330 329 331 332 333 333 332 332 334 335 334 332 331 330 329 329
330 332 333 331 329 328 329 332 332 332 332 331 330 330 327 326 330 330 330 333 334 334 335 333 332 332 329 327 326 327 329 329 329 330 331 331 331 330 328 327 326 326 326
327 329 331 330 329 328 332 331 330 329 329 329 328 327 327 324 326 328 329 331 330 332 331 330 330 329 327 324 324 325 325 325 326 327 327 327 327 326 324 322 321 321 322
326 330 328 328 327 327 329 330 330 329 327 324 324 324 324 325 325 325 326 325 329 327 327 328 327 326 321 319 320 321 323 324 325 326 325 325 325 324 321 320 318 317 317
325 327 328 327 326 326 327 328 328 327 325 324 324 324 325 325 325 325 325 325 325 324 323 322 319 317 316 316 317 320 323 324 322 322 321 321 322 321 319 317 316 314 315
325 328 327 326 326 325 325 327 327 325 323 323 322 323 323 322 320 321 321 321 322 322 319 316 316 315 315 316 320 322 322 321 319 318 319 318 318 317 317 315 314 313 313
325 327 327 325 325 324 323 324 324 323 322 322 321 321 320 318 317 318 318 318 318 316 313 313 312 311 313 318 320 320 319 318 318 317 315 315 314 314 314 313 312 312 311
325 326 325 324 325 324 323 322 322 322 321 320 319 319 318 316 314 313 313 311 311 310 309 311 312 312 314 317 317 316 316 315 315 314 313 312 310 310 310 310 310 311 310
324 324 323 324 324 323 322 321 320 320 318 316 316 315 316 315 313 311 306 301 301 304 308 310 311 313 314 315 313 312 312 313 312 312 310 309 306 305 307 307 308 308 308
323 323 323 322 321 323 322 322 318 316 314 313 313 313 312 313 313 311 307 300 297 300 306 309 311 312 312 311 310 309 309 310 309 307 306 303 301 299 300 303 304 305 306
322 322 321 321 320 320 322 320 316 314 314 313 313 313 313 312 311 308 299 296 296 297 303 307 309 309 309 308 304 303 303 303 303 303 300 297 295 294 292 295 296 300 303
320 322 321 320 318 318 318 316 312 311 311 312 312 311 310 309 304 299 296 295 295 296 300 304 307 309 304 306 305 297 296 297 297 295 293 292 291 291 291 291 292 292 296
318 320 321 319 318 317 317 315 311 311 309 310 309 308 307 304 298 296 296 295 294 296 300 303 305 300 298 302 299 293 293 291 291 291 291 291 290 290 289 289 289 289 290
312 319 320 319 318 317 316 314 311 308 305 304 303 304 303 300 297 296 296 295 294 295 297 301 303 303 297 295 296 293 293 296 291 289 289 290 289 289 289 289 289 289 289
296 307 317 318 316 316 316 313 312 306 301 301 301 301 300 298 296 296 295 295 294 294 294 297 300 300 298 292 292 292 292 291 294 290 288 288 289 289 289 289 288 288 288
290 296 314 317 314 313 314 314 312 307 306 303 300 299 300 296 295 295 295 294 294 293 294 294 296 296 297 294 292 291 291 291 291 293 291 288 288 288 288 288 288 288 288
287 290 299 314 312 312 311 312 312 311 306 302 298 297 297 298 297 295 295 294 293 293 293 293 293 293 293 294 292 292 292 293 291 291 291 288 289 287 288 288 288 288 288
Wind_Speed
20 20 19 16 13 14 14 13 14 14 14 14 14 13 13 14 14 14 15 17 19 18 18 20 20 20 18 18 19 19 19 20 21 23 25 26 25 24 24 25 27 26 27
20 22 18 15 13 12 13 13 14 14 14 15 14 14 12 11 12 13 15 17 19 19 20 21 22 21 21 20 21 21 21 24 25 24 24 26 26 26 26 25 26 25 26
19 23 18 15 14 13 13 12 13 13 14 14 11 10 10 13 12 8 10 15 19 20 21 24 26 25 24 23 24 23 23 26 25 25 26 22 22 26 27 27 27 26 26
20 22 18 16 14 13 13 13 12 12 12 13 12 11 13 15 17 15 7 15 19 20 23 25 27 27 27 27 26 24 25 26 26 26 22 22 22 25 27 28 27 26 26
23 20 17 16 14 13 13 13 9 12 12 13 12 11 14 19 19 16 22 17 15 20 23 24 27 31 29 27 26 25 26 26 25 23 21 21 21 24 25 26 26 25 25
22 18 16 15 14 14 12 12 11 11 11 13 13 14 17 20 16 19 14 14 20 18 24 26 31 32 27 27 22 23 24 26 26 21 21 23 21 23 25 25 24 24 24
20 16 14 14 14 14 12 10 12 13 12 11 11 12 16 19 20 21 20 22 21 22 30 32 31 31 27 27 25 25 26 27 27 24 23 21 23 24 25 25 25 24 24
17 14 12 12 12 11 11 11 12 13 12 10 9 11 14 19 18 18 23 22 26 30 34 35 32 27 29 25 29 26 28 28 29 28 24 23 24 24 25 28 29 29 29
15 12 12 14 12 12 11 11 12 14 12 9 8 13 11 14 10 14 17 27 37 32 32 28 25 28 26 25 27 27 25 28 31 29 26 24 27 28 28 28 26 26 26
16 14 14 16 14 12 9 9 6 7 7 14 9 8 16 13 6 4 18 30 33 29 29 30 31 31 29 27 28 27 26 26 26 25 22 23 26 26 26 26 24 23 23
17 17 16 14 15 10 7 10 11 11 20 14 10 12 20 20 19 23 33 41 33 30 32 34 31 29 28 25 25 25 25 26 25 25 24 24 23 24 24 24 23 22 22
17 18 17 15 14 12 16 17 16 16 15 14 14 17 19 19 22 28 23 32 31 29 31 32 31 29 26 26 27 26 28 29 29 26 25 23 22 21 22 22 20 20 20
18 17 19 17 16 16 17 18 19 19 16 19 21 21 21 23 21 21 18 13 19 21 28 30 32 30 30 29 28 28 29 30 28 25 24 25 23 22 21 19 19 19 19
21 19 21 20 19 18 19 21 19 17 17 21 20 23 24 25 26 29 28 29 27 22 22 30 32 34 32 28 28 29 29 30 25 27 24 22 21 20 19 17 18 18 18
23 22 26 24 22 20 19 21 19 19 19 19 20 19 19 23 27 31 31 30 27 23 24 28 30 30 30 29 29 30 30 29 27 26 25 21 21 19 18 17 16 17 16
25 25 29 27 26 23 22 20 18 17 19 17 17 18 19 21 26 27 27 27 24 20 26 29 29 29 30 29 29 29 28 28 27 24 22 20 18 18 17 15 15 16 15
34 29 31 28 29 27 24 22 20 21 21 21 18 20 21 23 26 28 26 23 22 23 25 27 27 28 30 29 29 28 27 27 27 25 22 21 20 18 16 14 14 14 14
26 31 29 30 33 29 27 25 23 23 22 21 20 20 20 23 25 28 25 23 25 27 26 26 28 29 30 30 28 26 26 25 25 23 20 18 16 17 17 15 13 13 13
29 29 30 30 31 32 31 29 25 23 22 22 23 22 22 23 24 24 22 22 24 27 27 28 30 28 30 29 26 26 24 23 22 20 18 15 13 13 13 16 13 13 13
29 28 29 29 29 32 32 31 26 24 22 22 23 24 23 22 22 21 22 25 27 28 28 28 29 29 31 32 28 24 21 18 17 15 14 13 12 12 12 12 12 13 12
27 29 30 31 31 34 33 32 28 26 25 23 22 23 24 25 24 22 22 24 26 28 29 30 32 33 30 33 27 22 16 13 12 13 12 11 10 9 9 9 9 8 9
22 29 30 32 37 36 35 32 26 30 25 26 25 23 23 24 24 24 24 25 26 27 31 32 34 27 23 26 12 10 3 2 6 10 11 11 9 9 8 8 8 6 6
5 22 29 34 38 36 34 34 27 29 24 23 23 24 25 24 24 25 25 25 26 28 31 31 32 30 24 17 25 5 4 3 6 6 8 9 9 9 9 7 7 6 6
17 5 18 29 34 36 39 36 38 28 22 22 32 29 26 23 24 23 23 24 25 26 28 29 30 23 25 19 17 6 6 7 3 3 5 9 9 9 8 7 6 5 5
25 18 10 27 32 35 37 38 36 26 26 29 31 30 28 25 24 23 23 23 25 27 27 29 29 22 23 21 13 9 9 8 5 3 4 5 9 10 9 9 7 6 4
28 30 21 24 29 35 33 35 34 35 32 30 29 30 30 26 24 22 23 24 24 24 25 25 24 21 19 21 15 9 7 4 3 3 4 4 4 7 10 9 8 7 6
Wind_Direction
191 176 176 179 183 184 190 194 187 192 191 192 194 191 198 196 194 195 197 193 188 182 173 161 149 147 139 132 129 127 124 119 117 118 114 112 111 114 119 120 116 116 116
178 175 175 178 181 192 192 198 193 191 193 197 197 195 196 194 196 201 199 197 191 184 173 160 156 150 142 134 128 125 122 122 119 118 115 113 112 111 116 122 116 116 115
172 172 175 179 183 189 188 193 199 200 199 202 202 198 201 201 186 193 219 207 196 187 176 162 153 146 139 133 127 121 122 125 125 123 115 112 111 114 115 112 112 114 112
173 174 179 182 185 189 198 192 205 203 205 207 213 206 202 203 176 160 247 235 211 194 178 163 151 142 135 130 124 125 125 127 125 123 114 114 114 112 110 108 105 107 106
177 182 184 181 189 193 197 206 210 209 209 212 206 198 197 199 204 200 198 208 226 199 179 164 147 136 128 125 124 126 128 128 125 117 117 117 115 115 112 110 109 109 108
175 183 189 192 194 197 201 209 211 224 218 223 219 205 200 207 193 199 189 208 234 194 172 162 144 139 142 126 122 125 131 133 126 116 115 118 115 113 110 110 115 109 107
175 182 191 201 196 197 205 215 220 230 231 231 231 220 209 211 214 206 206 191 186 157 141 132 128 126 127 131 131 143 140 132 122 115 114 114 113 110 110 107 105 106 106
178 181 184 190 189 194 206 218 227 235 235 230 234 224 217 216 219 209 199 183 159 131 131 129 126 127 126 132 146 143 139 133 123 118 115 118 115 111 106 104 101 99 97
175 181 189 186 187 190 200 214 237 244 231 220 220 223 211 202 191 196 213 216 153 144 139 141 134 135 139 138 137 141 135 127 121 116 111 111 109 103 100 95 97 96 94
173 172 167 167 170 199 219 216 209 194 188 169 183 191 194 173 189 302 230 188 161 155 145 139 137 135 138 134 130 131 127 124 120 118 110 110 99 98 95 92 91 92 93
179 180 179 169 174 188 182 163 157 153 145 150 171 175 143 119 117 74 108 117 119 135 133 133 137 141 139 130 129 128 128 119 119 112 104 105 100 96 91 90 89 90 89
184 183 185 179 180 163 163 163 155 158 161 157 164 162 160 135 100 115 94 108 111 104 120 127 140 141 135 130 127 126 120 118 112 109 108 103 97 95 91 88 88 86 84
187 183 181 176 173 169 174 169 165 163 154 142 138 144 147 145 143 128 136 125 140 130 126 138 137 137 136 135 128 124 125 121 112 104 109 102 99 97 95 91 88 86 88
192 190 186 179 171 177 177 171 173 167 161 149 150 146 142 144 145 150 153 148 146 143 134 137 137 136 135 131 130 129 129 125 110 106 107 102 98 98 97 93 89 89 87
194 188 192 184 177 180 177 174 173 170 166 160 157 156 159 150 144 148 146 147 150 148 141 141 139 136 132 133 133 132 129 126 117 111 109 109 99 94 93 93 91 89 90
196 189 191 189 181 182 182 182 184 177 170 166 162 163 162 155 150 147 144 145 145 145 149 147 143 135 130 133 132 132 130 127 123 125 116 112 111 95 93 94 94 95 92
200 188 192 188 185 182 189 185 184 174 162 157 158 154 160 165 156 150 146 146 148 151 154 146 138 134 132 130 125 126 126 125 125 126 129 126 119 101 96 93 95 97 95
195 191 188 188 187 183 187 186 180 173 167 163 160 160 162 165 161 156 149 147 150 153 157 149 141 135 129 127 125 123 122 123 126 128 131 132 127 115 98 96 95 96 96
194 190 188 189 186 185 183 185 181 180 176 168 162 161 160 158 161 164 160 153 153 153 156 150 142 139 131 126 126 128 128 126 125 128 130 132 129 123 116 112 103 99 98
192 191 188 187 183 184 183 183 178 176 177 173 169 167 168 170 174 174 163 157 159 156 156 153 146 138 137 136 126 120 116 121 125 128 132 134 132 128 118 123 120 100 95
190 187 184 180 179 180 179 177 175 172 174 177 177 173 172 172 173 172 168 163 163 160 159 159 151 147 133 137 119 107 103 120 133 138 142 139 141 138 134 139 139 128 120
199 194 183 179 181 185 182 179 177 180 177 179 178 179 178 175 173 174 175 172 168 163 162 161 156 145 145 149 145 119 142 122 144 151 148 149 150 145 147 149 148 147 148
179 197 190 181 182 185 179 177 173 176 173 173 178 178 179 182 181 180 179 177 176 175 169 168 166 160 158 163 161 152 146 165 139 166 163 158 166 160 164 155 143 144 152
347 285 196 184 179 181 191 180 176 170 165 184 179 179 178 184 185 184 184 182 181 183 178 175 176 174 167 160 163 112 110 130 141 142 180 183 176 183 176 164 160 158 159
356 355 206 181 177 180 186 189 179 171 179 181 183 177 177 179 184 183 186 186 187 187 185 182 181 180 185 174 173 138 119 108 103 141 148 171 193 194 188 184 180 179 177
9 9 24 169 171 183 182 188 182 185 183 175 172 173 180 182 180 191 186 194 191 189 190 189 189 186 183 192 189 177 163 153 154 120 113 144 161 188 197 197 195 194 193